User: anonymous   Login
Location: Krakow
(50.0212°N, 19.9423°E)
Time: 00:35:57
(UTC+02:00)
Language:

NOAA 15 - Orbit

View from above orbital plane
View from above orbital plane
View from above satellite
View from above satellite

Ground track
Ground track

The orbit data is extracted from the following two-line orbital elements,

1 25338U 98030A   24115.51118005  .00000653  00000-0  28852-3 0  9997
2 25338  98.5736 143.7484 0011476 119.3572 240.8756 14.26547466349787
Epoch (UTC): 24 April 2024 12:16:05
Eccentricity: 0.0011476
inclination: 98.5736°
perigee height: 795 km
apogee height: 811 km
right ascension of ascending node: 143.7484°
argument of perigee: 119.3572°
revolutions per day: 14.26547466
mean anomaly at epoch: 240.8756°
orbit number at epoch: 34978

The dashed part of the orbit path shows where the satellite is in the earth's shadow,  

DLR